Regional Weather Roundup
Issued by NWS

Home | Current Version | Previous Version | Text Only | Print | Product List | Glossary Off
Versions: 1 2 3 4 5 6 7 8 9 10 11 12 13 14 15 16 17 18 19 20 21 22 23 24 25 26 27 28 29 30 31 32 33 34 35 36 37 38 39 40 41 42 43 44 45 46 47 48 49 50

000
ASUS43 KDTX 181910
RWRMI
MICHIGAN HOURLY REGIONAL WEATHER ROUNDUP
NATIONAL WEATHER SERVICE DETROIT/PONTIAC MI
300 PM EDT THU SEP 18 2014

NOTE: "FAIR" INDICATES FEW OR NO CLOUDS BELOW 12,000 FEET WITH NO
SIGNIFICANT WEATHER AND/OR OBSTRUCTION TO VISIBILITY.

MIZ047>049-052>055-059>063-066>070-074>076-081>083-182000-
SOUTHEAST LOWER MICHIGAN

CITY           SKY/WX    TMP DP  RH WIND       PRES   REMARKS
ADRIAN         CLOUDY    69  48  47 NE3       30.14F
ALMA           CLOUDY    55  51  86 NE7       30.20F
ANN ARBOR      PTSUNNY   68  49  50 N7        30.14F
BAD AXE        CLOUDY    54  45  70 N7        30.21S
CARO           CLOUDY    57  47  69 N5        30.19F
DETROIT CITY   PTSUNNY   67  48  50 W5        30.15F
DETROIT        PTSUNNY   68  50  52 NW9       30.15S
FLINT          CLOUDY    61  51  70 N13       30.18S
GROSSE ILE     CLOUDY    68  52  56 NE7       30.13S
HILLSDALE      MOSUNNY   68  48  48 N5        30.14S
HOWELL         CLOUDY    61  52  70 N5        30.17S

CITY           SKY/WX    TMP DP  RH WIND       PRES   REMARKS
JACKSON        PTSUNNY   67  51  56 VRB3      30.15F
LAMBERTVILLE   MOSUNNY   68  54  60 E5        30.13F
LANSING        CLOUDY    62  52  69 NE7       30.18S
LAPEER         CLOUDY    54  49  82 NE6       30.19S
MASON          PTSUNNY   63  52  67 N6        30.16S
MONROE         PTSUNNY   66  52  59 CALM      30.12F
MT. CLEMENS    PTSUNNY   62  56  79 NE12      30.14F
PONTIAC        PTSUNNY   63  49  60 N6        30.15F
PORT HOPE        N/A     54  42  64 NE12      30.20F
PORT HURON     CLOUDY    57  50  77 N13       30.18F
TRI CITIES     CLOUDY    58  48  69 NE9       30.22S
TROY           CLOUDY    64  50  61 NE7       30.17S
SAGINAW HB     CLOUDY    57  46  67 NE7       30.19F
$$
MIZ043>046-050>051-056>058-064>065-071>073-077>080-182000-
SOUTHWEST LOWER MICHIGAN

CITY           SKY/WX    TMP DP  RH WIND       PRES   REMARKS
BATTLE CREEK   SUNNY     67  50  54 E3        30.15F
BENTON HARBOR  SUNNY     65  51  60 N7        30.14F
BIG RAPIDS     CLOUDY    58  53  84 E6        30.18F
COLDWATER      MOSUNNY   70  51  51 NE3       30.14S
FREMONT        MOCLDY    61  51  70 CALM      30.17F
HOLLAND        PTSUNNY   70  52  52 N6        30.16F
GRAND RAPIDS   PTSUNNY   67  54  63 NE6       30.16F
IONIA          CLOUDY    61  53  75 E8        30.17S
KALAMAZOO      PTSUNNY   70  49  47 NE5       30.15F
LUDINGTON      CLOUDY    61  51  70 CALM      30.18S
MARSHALL       MOSUNNY   66  49  55 NE3       30.14F
MOUNT PLEASANT CLOUDY    53  49  89 CALM      30.21S
MUSKEGON       MOSUNNY   68  51  54 W7        30.16F
SOUTH HAVEN    SUNNY     68  52  55 NW8       30.14F
$$
MIZ016>042-182000-
NORTHERN LOWER MICHIGAN

CITY           SKY/WX    TMP DP  RH WIND       PRES   REMARKS
ALPENA         MOSUNNY   52  37  56 SE5       30.23F
BEAVER ISLAND  MOSUNNY   53  39  58 E6        30.22F
CADILLAC       PTSUNNY   59  47  64 S6        30.17S
CHARLEVOIX     MOSUNNY   56  40  56 E6        30.23F
FRANKFORT      SUNNY     60  45  56 NW9       30.18F
GAYLORD        MOSUNNY   53  36  52 VRB7      30.20F
GRAYLING       PTSUNNY   54  40  57 NE3       30.21F
HARBOR SPRINGS MOSUNNY   56  38  50 SE6       30.21F
HOUGHTON LAKE  PTSUNNY   57  42  57 SW5       30.20F
MANISTEE       SUNNY     59  45  58 N8        30.19F
OSCODA         CLOUDY    53  40  63 NE9       30.22S
PELLSTON       PTSUNNY   54  36  50 S5        30.22F
ROGERS CITY    PTSUNNY   48  39  71 NE8       30.26S
TRAVERSE CITY  MOSUNNY   59  42  53 NE8       30.17F
$$
MIZ007>008-015-182000-
EASTERN UPPER MICHIGAN

CITY           SKY/WX    TMP DP  RH WIND       PRES   REMARKS
KINROSS        PTSUNNY   52  36  54 E7        30.23F
MACKINAC ISLAN MOSUNNY   50  37  62 E12       30.23F
NEWBERRY       MOSUNNY   52  37  55 S8G20     30.21F
S. S. MARIE    MOSUNNY   50  33  52 VRB6      30.23F
MUNISING         N/A     56  41  57 NE12      30.20F
$$
MIZ004>006-011>014-085-182000-
CENTRAL UPPER MICHIGAN

CITY           SKY/WX    TMP DP  RH WIND       PRES   REMARKS
MANISTIQUE     MOSUNNY   51  39  64 CALM      30.22F
ESCANABA       SUNNY     52  37  58 SE12      30.21F
MENOMINEE      SUNNY     54  41  62 E8        30.20F
SAWYER-GWINN   SUNNY     54  36  50 S7        30.18F
$$
MIZ001>003-009>011-084-182000-
WESTERN UPPER MICHIGAN

CITY           SKY/WX    TMP DP  RH WIND       PRES   REMARKS
IRON MOUNTAIN  SUNNY     56  38  50 VRB3      30.17F
HOUGHTON       SUNNY     50  37  61 E12G17    30.17F
COPPER HARBOR    N/A     48  34  58 S10G20    30.20F
IRONWOOD       CLOUDY    54  46  76 W6        30.12F
$$

ABBREVIATIONS USED IN REMARKS
   TC - TEMPERATURE IN CELSIUS
  WCI - WIND CHILL INDEX
   HX - HEAT INDEX
  VSB - VISIBILITY




USA.gov is the U.S. government's official web portal to all federal, state and local government web resources and services.